Temperature
20 20 20 21 20 21 22 24 24 24 23 22 22 22 22 22 20 17 15 14 14 14 14 13 12 11 11 10 10 10 9 9 8 8 7 7 7 6 6 6 6 6 6 6 6 6 6 7 7
20 20 20 21 21 21 23 24 24 23 22 21 20 20 21 21 19 18 15 14 14 14 14 13 12 11 11 10 10 10 9 9 9 8 8 7 7 7 6 6 6 6 6 6 6 6 6 6 7
20 20 21 21 21 21 23 24 23 21 21 20 20 20 21 20 18 18 17 15 14 13 13 13 12 11 11 11 10 10 10 9 9 8 8 8 7 7 7 7 7 6 6 6 6 6 6 6 7
20 21 22 22 22 24 25 25 23 21 20 20 21 21 20 18 17 18 17 16 14 13 12 12 12 11 11 11 10 10 10 9 9 9 9 8 8 8 8 7 7 7 6 6 6 7 7 7 7
20 22 21 21 22 24 26 25 23 23 22 20 20 21 19 18 18 18 17 15 14 13 12 12 12 11 11 11 10 10 10 9 9 9 9 9 9 8 8 8 8 8 7 7 7 7 7 7 7
22 23 21 21 23 25 26 25 24 23 23 22 21 20 19 18 18 18 17 15 14 13 12 12 11 11 11 11 10 10 10 9 9 9 9 9 9 9 9 8 8 8 8 8 7 7 7 7 7
22 21 21 21 22 23 25 24 23 23 23 23 21 20 19 18 18 18 17 14 13 12 11 12 11 11 11 10 10 10 9 9 9 9 9 9 9 9 8 8 8 8 8 7 7 7 7 7 7
21 21 21 21 22 23 24 22 22 21 22 22 21 20 20 18 17 17 16 13 12 11 11 11 11 11 11 10 10 10 10 9 9 9 9 9 9 9 8 8 8 8 7 7 7 7 7 7 7
21 20 19 21 22 22 23 22 22 20 20 20 20 20 18 18 17 16 15 13 11 11 11 10 11 11 11 10 10 10 10 9 9 9 9 9 9 8 8 8 8 7 7 7 7 7 7 7 7
22 19 20 22 23 22 22 22 22 21 19 20 20 19 17 17 16 16 16 15 13 12 11 10 10 10 10 10 9 10 10 10 9 9 9 9 9 8 8 8 8 7 7 7 7 7 7 7 7
22 20 21 23 23 22 21 21 21 21 19 20 20 19 18 17 16 16 16 16 16 14 13 11 10 9 9 9 9 9 9 10 9 9 9 9 8 8 8 8 7 7 7 7 7 7 7 7 6
22 21 22 22 22 20 19 20 20 20 20 20 21 21 19 18 17 17 17 16 15 14 14 13 11 10 9 9 9 9 9 10 10 9 9 9 9 8 8 8 8 7 7 7 7 7 7 6 6
21 21 22 22 21 19 19 18 18 19 20 20 20 20 19 18 18 18 17 16 15 15 14 14 12 11 10 9 9 9 9 9 9 9 9 9 9 8 8 8 7 7 7 7 7 6 6 6 6
21 20 20 21 21 20 19 18 18 19 20 20 20 20 19 18 18 17 16 15 14 14 14 14 13 12 11 10 10 9 9 9 9 9 9 9 9 8 8 8 7 7 7 7 6 6 6 6 6
19 18 19 20 21 20 18 17 18 20 20 20 20 20 19 18 17 16 16 16 15 15 14 14 14 12 11 11 10 10 9 9 9 9 9 9 9 8 8 8 7 7 7 6 6 6 6 6 5
19 19 18 22 20 18 17 16 20 22 22 21 21 21 20 19 18 17 16 16 15 14 14 14 13 12 12 11 11 10 10 9 9 9 9 9 9 8 8 8 7 7 7 6 6 6 6 5 5
19 19 20 21 20 19 16 16 19 21 22 22 22 22 21 20 19 18 17 16 15 14 14 13 13 13 12 11 11 10 10 9 9 9 9 9 9 8 8 8 7 7 7 6 6 6 6 5 5
19 19 19 19 21 20 18 18 20 21 22 22 22 22 22 21 21 20 18 17 16 14 13 13 12 12 12 11 10 9 9 9 9 9 9 9 9 9 8 8 7 7 7 6 6 6 5 5 4
19 18 18 19 21 19 18 18 19 20 21 21 21 21 21 20 20 20 19 18 16 15 13 13 12 12 11 11 10 10 11 10 9 9 9 9 9 9 9 8 8 7 7 7 6 6 5 5 4
18 18 18 19 20 19 17 18 19 21 21 21 20 20 19 19 19 19 19 17 16 15 14 13 12 12 12 12 12 12 11 11 10 9 9 9 9 9 9 9 8 8 7 7 6 6 5 5 4
18 18 18 17 17 18 18 18 21 21 22 21 20 19 18 18 18 18 18 17 16 15 14 13 12 12 12 12 11 10 9 9 9 9 10 10 9 9 9 9 8 8 7 7 7 6 5 5 4
18 18 17 17 16 16 18 15 18 21 19 19 19 18 18 17 17 17 17 16 16 15 14 13 12 12 11 11 10 10 10 11 12 11 11 10 9 9 9 8 8 8 7 7 6 6 5 4 4
18 17 16 16 15 15 17 17 18 20 19 18 18 18 18 17 17 17 16 16 15 15 14 13 12 12 11 10 10 10 10 11 10 9 9 9 8 8 8 7 7 7 6 6 6 5 5 4 4
17 16 16 16 15 15 18 18 17 20 20 19 18 18 18 17 17 16 16 16 15 15 14 13 13 12 11 10 10 9 9 9 8 8 8 8 7 7 7 7 6 6 6 5 5 4 3 3 3
16 16 16 16 15 17 18 17 17 20 20 19 18 18 17 16 16 15 15 15 15 14 14 14 13 12 11 10 9 9 9 8 8 8 7 7 7 7 7 6 6 6 5 4 3 3 2 2 2
18 17 16 16 16 17 18 17 18 21 20 20 19 18 17 16 15 15 14 14 14 14 13 13 13 12 11 11 10 10 9 8 8 8 7 7 7 7 6 6 5 5 4 4 3 2 1 1 1
17 17 17 16 16 15 17 19 20 20 19 19 19 17 16 16 15 14 14 14 13 13 13 13 13 12 12 11 11 10 9 9 9 8 7 7 7 6 5 5 5 4 4 3 2 1 1 0 -0
16 15 15 15 15 15 17 18 18 20 19 18 17 17 16 15 14 14 13 13 13 13 13 12 12 12 12 11 11 10 10 9 9 8 8 8 7 6 6 5 4 4 3 3 2 1 0 -0 -1
14 15 15 15 15 14 14 16 19 19 19 18 16 16 15 14 14 13 13 13 13 12 12 12 12 12 11 11 11 10 10 9 9 8 8 8 7 7 6 5 4 4 3 3 2 1 0 -1 -2
17 17 16 14 15 15 14 15 20 20 18 17 16 15 14 14 13 13 13 12 12 12 12 11 11 11 11 10 10 10 10 9 9 9 8 8 8 7 6 5 4 4 3 2 2 1 -0 -1 -2
Wind_Speed
9 12 8 3 4 5 9 1 2 4 4 5 5 3 5 6 4 4 7 11 15 20 24 24 22 20 18 16 15 14 13 12 11 11 11 11 11 12 12 13 13 14 14 15 15 16 17 17 18
10 8 5 4 5 7 6 2 4 9 8 6 3 2 3 2 7 10 8 12 19 22 24 23 23 21 19 17 16 14 13 12 12 11 11 10 11 11 11 11 12 12 13 13 14 15 15 16 17
8 8 4 4 8 9 4 5 9 9 7 3 4 3 4 5 11 11 9 14 19 20 24 24 24 22 20 18 17 15 14 13 12 11 10 10 10 10 10 10 11 11 11 12 12 13 14 14 15
5 4 5 6 10 9 3 3 9 8 5 3 4 4 4 7 7 11 14 14 15 16 24 25 25 23 21 19 18 16 15 14 12 11 11 10 9 9 9 9 9 9 10 10 11 12 12 13 13
4 4 6 8 12 11 4 4 6 2 6 9 6 5 6 6 11 15 14 14 14 14 23 26 25 23 22 20 19 17 16 14 13 12 11 10 9 9 8 8 8 8 8 9 9 10 10 11 12
4 5 7 9 11 7 3 4 6 4 7 6 9 5 5 8 11 14 13 12 12 13 21 25 25 24 22 21 20 18 17 15 14 12 11 10 9 8 8 7 7 6 7 7 7 8 8 9 10
4 5 8 11 11 10 7 6 1 3 7 5 9 5 7 8 10 13 12 10 11 15 19 23 23 23 23 22 20 19 18 16 15 13 12 11 10 8 8 7 6 5 5 5 5 6 6 7 8
4 5 10 11 11 9 4 3 2 4 7 3 7 5 4 10 12 12 11 10 10 10 13 21 21 21 21 21 21 20 19 18 16 15 13 12 10 9 8 7 6 5 4 3 3 3 4 4 5
3 4 8 10 9 8 5 2 2 4 4 4 4 1 7 17 14 12 10 10 10 12 10 16 20 21 21 21 21 21 20 19 17 16 15 13 11 11 10 8 8 6 4 3 2 0 2 2 2
4 5 10 10 8 8 9 9 7 4 7 8 8 7 11 14 14 15 15 16 15 15 14 10 16 20 22 21 20 20 19 18 18 17 16 15 14 14 12 11 9 7 6 5 4 3 4 3 2
7 9 10 11 8 6 8 10 10 10 11 12 12 14 16 15 16 17 18 18 17 15 14 13 11 19 20 17 19 18 17 18 19 20 21 18 15 12 11 12 11 9 9 9 8 7 7 4 2
9 11 11 10 5 2 6 8 9 12 13 10 9 6 19 19 20 20 20 17 15 14 16 14 12 13 17 17 16 18 16 17 18 20 23 19 14 13 13 14 15 15 13 12 10 9 8 5 4
10 11 11 8 6 6 9 12 12 16 16 13 12 9 18 19 19 18 17 15 16 17 17 15 12 11 13 14 13 15 15 16 18 19 21 21 15 11 13 13 14 15 14 13 10 10 8 6 6
8 10 12 12 11 8 10 12 9 15 13 13 13 12 15 18 18 16 16 17 18 18 18 16 15 13 13 11 10 11 14 16 18 19 20 21 18 15 13 12 13 14 14 13 12 10 8 6 6
5 8 13 14 13 5 3 10 10 18 14 13 12 12 14 16 17 18 18 18 17 17 17 18 16 13 13 11 12 13 15 17 16 18 21 22 20 18 15 11 11 14 15 14 12 10 7 6 6
6 7 7 4 7 7 2 11 10 10 9 11 12 12 14 16 18 18 17 16 15 14 16 18 17 16 14 11 12 12 15 16 16 18 21 23 23 21 17 11 11 16 16 14 9 6 5 5 5
7 7 9 7 5 7 8 13 14 12 14 14 12 11 11 14 18 19 18 17 16 15 15 16 16 17 15 12 11 12 13 14 16 18 19 22 23 23 18 13 14 17 14 11 9 6 6 6 6
9 10 10 11 7 7 10 16 21 14 12 11 9 8 7 9 12 15 18 17 16 15 14 15 15 15 13 11 9 9 10 9 14 16 18 21 23 24 20 15 15 17 9 8 7 7 7 6 5
9 10 14 14 9 5 11 17 20 16 7 6 7 6 5 4 4 5 14 14 14 14 14 15 16 15 13 12 13 13 13 10 9 11 19 22 22 24 21 14 14 13 10 11 10 8 8 7 5
8 11 13 12 7 10 13 16 17 6 2 4 6 8 9 8 6 4 7 11 12 13 13 14 15 15 14 13 11 8 8 8 8 8 14 21 23 23 23 17 11 12 10 12 13 10 7 7 8
10 10 9 9 11 9 8 10 3 6 8 9 9 9 8 8 8 6 4 8 9 11 13 12 14 15 15 12 7 6 6 6 9 10 12 15 22 23 22 20 15 12 13 13 15 13 13 10 9
9 4 6 8 8 6 7 6 7 4 9 9 9 9 9 8 7 5 3 3 8 10 10 11 12 13 13 13 11 12 13 15 15 11 10 11 18 20 23 21 19 13 12 14 15 15 12 10 8
5 6 7 8 7 6 6 5 8 3 7 8 8 8 8 8 7 5 3 1 4 7 8 10 10 11 12 13 14 13 15 13 9 9 11 13 13 17 20 20 17 15 14 15 14 15 15 14 12
6 8 11 6 3 5 4 4 6 1 6 7 7 8 8 7 8 7 4 2 0 3 5 7 9 10 10 13 14 15 16 13 11 11 12 11 11 12 16 17 16 15 14 15 15 14 16 15 14
5 5 4 1 4 4 3 3 7 0 7 7 7 7 7 8 7 7 7 4 2 1 4 6 8 9 10 11 13 14 15 14 15 13 12 12 11 12 15 17 17 16 14 13 12 14 15 16 15
4 2 4 4 5 6 3 6 6 1 6 8 7 7 7 7 6 7 7 6 4 1 2 4 7 8 9 10 12 12 13 12 12 13 12 13 12 12 12 17 18 17 15 16 14 14 15 13 16
4 2 2 3 7 6 6 6 5 2 5 6 5 6 6 6 7 7 6 6 5 4 1 2 5 7 8 10 10 11 12 12 13 12 12 12 11 10 12 15 17 17 17 17 16 15 17 15 16
4 6 3 3 4 5 7 7 3 1 2 3 5 6 6 6 6 6 5 5 4 3 2 1 3 5 6 8 9 9 10 12 12 12 14 13 13 12 11 13 15 16 17 17 17 15 14 16 16
6 4 5 5 5 4 5 6 4 6 4 5 6 6 6 7 6 5 4 4 4 3 3 2 2 3 4 5 6 7 9 9 10 11 13 13 13 13 13 14 14 16 17 17 18 18 16 18 16
2 4 5 5 7 6 7 8 7 3 5 6 6 5 6 5 3 3 4 5 5 5 5 4 3 3 3 4 5 7 8 8 9 11 12 11 12 12 13 13 14 16 17 17 19 20 19 19 19
Wind_Direction
262 245 234 245 247 245 259 182 79 101 96 68 53 342 327 348 20 130 173 164 136 144 151 157 156 155 152 149 144 140 135 128 121 114 106 100 94 88 83 78 73 69 65 61 58 56 54 52 50
271 243 241 242 253 263 265 112 90 68 77 90 94 284 273 97 102 124 162 152 144 148 152 159 159 157 156 154 151 147 142 136 129 123 115 108 101 94 89 83 78 73 68 64 59 56 54 52 49
270 260 247 237 250 261 298 64 84 87 97 144 179 218 294 88 126 146 157 142 148 150 154 161 161 160 160 159 156 153 149 144 138 132 125 117 109 102 95 88 82 76 71 67 61 56 53 51 48
263 237 241 248 262 268 295 63 96 121 137 211 253 199 149 89 119 140 142 148 151 152 154 159 163 164 164 163 161 159 156 151 147 141 135 127 118 110 102 95 87 81 74 68 62 56 51 49 46
233 251 246 255 261 269 258 113 106 201 181 183 208 258 134 102 104 125 145 159 157 155 152 160 167 167 167 167 166 165 162 158 155 150 144 137 130 122 115 106 96 87 78 71 64 57 49 45 42
261 258 266 267 274 288 321 112 140 218 265 198 172 237 127 134 131 139 156 165 159 155 151 162 170 171 171 172 171 170 168 165 162 159 154 149 143 137 130 121 110 97 86 75 66 56 47 40 37
303 296 286 292 299 305 320 78 89 298 284 254 157 199 131 168 150 145 159 169 162 158 154 161 173 174 176 176 176 175 173 171 169 167 163 159 155 151 145 138 128 114 99 85 70 54 42 34 31
315 297 286 285 287 298 354 76 35 344 300 325 147 214 151 166 144 144 157 175 168 161 159 161 173 175 177 179 181 180 178 177 175 173 170 168 166 163 161 156 151 140 127 109 83 52 30 21 22
276 263 270 278 296 316 360 304 232 128 292 285 200 94 88 128 140 149 160 182 179 173 172 166 174 176 177 179 185 183 182 182 179 176 176 174 173 175 179 171 168 166 164 159 145 39 335 322 320
217 256 269 287 311 322 325 314 301 220 228 242 217 135 129 141 157 169 177 186 188 184 182 176 177 177 178 182 181 180 181 181 176 173 177 183 194 188 180 173 179 186 191 198 206 234 253 282 314
245 253 272 289 313 334 310 295 282 264 254 240 230 188 162 167 175 186 191 192 192 186 183 185 184 177 177 178 172 178 181 178 183 180 178 191 197 175 163 166 185 196 205 214 213 231 234 248 241
255 270 283 290 324 321 285 282 280 256 249 250 268 227 167 178 188 194 197 196 191 187 189 186 186 178 176 174 173 178 181 179 186 188 179 186 187 176 181 183 186 194 201 208 208 220 220 226 242
276 271 276 285 286 263 267 269 276 267 263 260 252 230 175 190 198 202 202 198 191 192 190 190 186 182 177 174 177 181 180 178 182 185 183 183 183 186 187 193 192 194 197 195 208 220 217 216 232
303 319 303 285 263 251 256 268 264 263 253 248 239 224 191 196 201 202 205 203 198 194 191 189 190 185 180 180 180 184 182 179 182 184 189 189 187 189 189 192 193 196 199 198 204 215 212 216 221
304 288 279 257 234 214 291 276 239 252 249 249 240 219 204 201 200 207 208 206 202 194 189 189 191 187 184 185 185 188 187 184 186 186 192 195 194 193 190 191 192 197 199 200 203 217 212 218 221
239 254 265 251 165 128 144 270 261 299 295 259 242 226 209 206 205 209 207 204 201 192 188 188 191 192 190 188 189 191 192 191 192 190 192 197 199 197 191 192 195 195 196 195 193 203 197 212 215
231 259 294 341 161 177 205 267 283 286 282 273 259 244 226 213 208 207 203 198 196 193 186 186 187 191 192 188 189 195 196 198 195 194 194 197 199 199 195 195 197 194 192 191 198 196 197 206 213
327 329 316 312 294 261 258 279 295 301 290 286 283 272 252 235 217 201 196 192 188 189 185 184 185 188 188 187 189 196 207 204 199 197 198 197 199 200 198 199 198 194 189 192 196 199 198 202 203
327 305 296 293 306 331 288 289 295 301 313 336 341 340 334 303 288 191 180 178 176 180 184 184 187 189 189 194 198 202 208 207 204 201 200 199 199 199 200 203 200 197 196 197 195 191 199 204 186
287 285 287 295 339 323 287 289 286 277 53 44 29 25 19 12 7 41 141 160 172 180 187 188 190 191 195 200 201 201 201 207 210 207 207 203 202 201 204 204 202 200 199 199 198 194 192 198 186
276 280 303 322 326 280 286 304 310 106 85 74 63 55 48 38 28 28 105 158 172 184 190 195 193 193 195 193 186 191 198 206 212 213 213 209 206 205 206 207 205 203 203 206 203 197 194 201 197
287 350 336 318 321 308 327 305 292 128 92 76 64 56 51 45 47 41 48 163 187 196 192 194 194 195 193 190 197 198 207 216 218 214 213 211 212 211 210 208 208 208 208 209 207 204 201 192 199
299 335 285 281 289 286 251 237 279 138 94 87 77 68 63 50 50 46 44 216 207 195 190 193 196 200 195 196 202 209 219 225 222 216 216 215 215 216 214 212 211 213 213 212 209 207 204 204 203
298 291 263 226 266 264 212 210 285 57 99 95 81 69 61 48 42 35 34 32 245 186 185 188 199 209 203 203 207 212 222 223 223 222 222 220 218 217 217 215 215 216 217 215 213 210 209 209 209
240 301 321 250 224 231 119 242 256 258 107 104 94 74 60 51 43 30 24 13 358 210 198 195 203 216 213 211 214 218 222 223 228 229 228 225 225 222 218 216 218 219 219 215 211 214 215 212 210
310 320 317 305 301 321 289 245 257 98 125 128 121 99 71 56 48 39 27 15 8 8 199 201 211 221 219 219 222 224 224 226 233 233 232 233 232 227 215 213 217 218 216 217 214 218 219 216 217
283 229 61 320 285 268 252 248 260 152 134 136 120 92 73 61 54 43 32 26 19 19 5 219 221 225 223 223 225 227 228 229 233 233 234 239 240 232 217 212 214 215 215 216 215 221 220 218 218
285 326 304 246 274 284 276 270 256 44 21 63 58 59 61 61 50 38 25 15 12 15 355 265 229 233 231 226 226 232 230 231 233 233 236 237 238 234 225 218 215 214 215 215 216 221 219 219 220
178 206 225 257 272 276 286 272 340 342 25 50 45 52 60 56 46 29 8 358 2 0 345 318 268 251 249 244 241 242 241 238 236 237 239 239 238 235 231 225 220 218 217 216 218 221 217 220 221
150 244 242 248 262 266 283 277 293 327 69 59 52 54 72 66 40 13 356 353 353 345 332 323 305 288 270 259 256 254 252 247 244 245 244 240 239 237 235 230 227 224 220 217 218 221 219 219 220
Height
1536 1538 1540 1542 1543 1543 1538 1528 1526 1529 1532 1537 1539 1540 1540 1540 1543 1552 1551 1550 1550 1552 1554 1557 1560 1562 1564 1566 1567 1568 1569 1570 1570 1570 1570 1570 1570 1570 1570 1569 1569 1568 1568 1567 1566 1565 1564 1563 1562
1536 1539 1542 1542 1543 1547 1536 1524 1526 1530 1534 1537 1540 1540 1540 1540 1541 1544 1546 1548 1548 1550 1552 1555 1558 1560 1562 1564 1566 1567 1568 1569 1569 1569 1570 1570 1570 1570 1569 1569 1569 1568 1567 1567 1566 1565 1564 1563 1562
1537 1540 1542 1539 1540 1541 1532 1525 1527 1533 1536 1538 1539 1540 1540 1540 1540 1541 1543 1545 1547 1549 1550 1553 1556 1558 1561 1563 1564 1566 1567 1568 1568 1569 1569 1569 1569 1569 1569 1568 1568 1568 1567 1566 1566 1565 1564 1563 1562
1539 1541 1539 1538 1537 1526 1522 1522 1526 1532 1536 1537 1538 1538 1539 1539 1539 1539 1541 1543 1545 1547 1548 1550 1554 1556 1559 1561 1563 1564 1565 1566 1567 1568 1568 1568 1568 1568 1568 1568 1568 1567 1567 1566 1565 1565 1564 1563 1562
1539 1539 1538 1538 1532 1522 1517 1519 1525 1529 1531 1534 1536 1536 1535 1536 1536 1537 1539 1541 1543 1545 1546 1548 1551 1554 1556 1559 1561 1562 1564 1565 1565 1566 1567 1567 1567 1567 1567 1567 1567 1567 1566 1566 1565 1565 1564 1563 1562
1540 1536 1540 1539 1528 1518 1516 1517 1522 1526 1528 1529 1531 1534 1533 1533 1534 1535 1537 1539 1541 1543 1544 1546 1549 1552 1554 1556 1558 1560 1561 1563 1564 1565 1565 1566 1566 1566 1566 1566 1566 1566 1566 1565 1565 1564 1564 1563 1562
1540 1537 1539 1535 1529 1523 1518 1519 1522 1524 1525 1527 1527 1530 1529 1530 1531 1532 1535 1537 1540 1541 1542 1543 1546 1549 1551 1553 1555 1557 1559 1560 1562 1563 1563 1564 1564 1565 1565 1565 1565 1565 1565 1564 1564 1564 1563 1562 1562
1539 1538 1538 1534 1530 1524 1519 1521 1523 1525 1525 1526 1525 1527 1526 1526 1527 1529 1532 1535 1537 1539 1539 1540 1542 1545 1548 1550 1552 1554 1556 1558 1559 1560 1561 1562 1562 1563 1563 1563 1564 1563 1563 1563 1563 1562 1562 1561 1561
1538 1541 1540 1533 1528 1523 1520 1521 1522 1522 1524 1524 1524 1524 1523 1523 1524 1526 1528 1531 1533 1535 1536 1537 1538 1541 1544 1547 1549 1551 1553 1554 1556 1557 1558 1559 1560 1561 1561 1561 1561 1561 1561 1561 1561 1561 1560 1560 1559
1536 1540 1534 1526 1523 1521 1520 1521 1521 1520 1520 1520 1521 1521 1520 1520 1521 1522 1523 1524 1527 1529 1531 1533 1535 1537 1540 1542 1545 1547 1549 1550 1552 1554 1555 1556 1557 1558 1558 1559 1559 1559 1559 1559 1559 1558 1558 1558 1557
1531 1531 1526 1523 1522 1521 1520 1520 1519 1517 1515 1515 1515 1515 1513 1514 1516 1517 1518 1520 1521 1524 1526 1529 1532 1534 1536 1538 1540 1542 1544 1546 1548 1550 1552 1553 1554 1555 1555 1556 1556 1557 1557 1557 1557 1556 1556 1556 1555
1527 1525 1523 1521 1520 1519 1519 1518 1515 1512 1509 1510 1510 1510 1507 1507 1509 1510 1512 1515 1517 1519 1521 1524 1527 1530 1532 1534 1535 1537 1539 1541 1543 1546 1547 1549 1550 1551 1552 1553 1553 1554 1554 1554 1554 1554 1553 1553 1553
1524 1522 1520 1518 1518 1517 1517 1515 1514 1506 1504 1504 1505 1506 1504 1503 1504 1506 1508 1511 1512 1514 1516 1518 1522 1525 1527 1529 1531 1533 1534 1536 1539 1541 1543 1544 1546 1547 1548 1549 1549 1549 1550 1550 1550 1550 1550 1550 1550
1523 1521 1519 1516 1514 1513 1513 1510 1510 1497 1497 1498 1498 1499 1499 1498 1499 1501 1503 1504 1506 1508 1510 1513 1516 1519 1522 1524 1525 1528 1530 1532 1534 1536 1538 1540 1541 1543 1543 1544 1545 1545 1546 1546 1546 1546 1546 1546 1546
1523 1522 1515 1508 1507 1508 1510 1507 1501 1492 1493 1493 1492 1492 1493 1493 1494 1495 1496 1498 1501 1503 1506 1508 1511 1514 1516 1518 1520 1523 1525 1527 1528 1530 1533 1535 1536 1537 1538 1539 1540 1541 1541 1542 1542 1542 1542 1542 1541
1521 1521 1518 1502 1502 1506 1514 1507 1493 1491 1490 1488 1486 1486 1485 1486 1486 1488 1491 1493 1496 1499 1501 1503 1506 1508 1510 1512 1515 1517 1519 1521 1523 1524 1526 1529 1530 1532 1533 1534 1534 1536 1536 1536 1537 1537 1537 1537 1536
1518 1520 1514 1506 1503 1504 1509 1502 1487 1488 1485 1481 1480 1479 1479 1479 1479 1481 1484 1487 1490 1494 1496 1498 1499 1502 1505 1507 1510 1512 1514 1515 1516 1518 1519 1521 1524 1525 1526 1527 1529 1530 1530 1530 1531 1531 1531 1531 1531
1522 1521 1517 1513 1503 1501 1502 1495 1483 1481 1479 1475 1473 1473 1473 1473 1474 1475 1477 1481 1484 1488 1491 1493 1495 1497 1500 1503 1505 1506 1508 1508 1510 1510 1512 1514 1516 1518 1519 1520 1522 1523 1523 1523 1524 1524 1525 1525 1525
1519 1520 1519 1510 1500 1501 1500 1493 1482 1477 1474 1473 1471 1470 1470 1470 1471 1472 1473 1476 1480 1483 1486 1488 1489 1491 1494 1495 1496 1497 1498 1501 1502 1503 1505 1506 1508 1510 1511 1512 1514 1515 1515 1515 1517 1518 1518 1518 1519
1519 1520 1516 1506 1498 1501 1497 1490 1478 1473 1473 1473 1472 1471 1471 1470 1470 1471 1472 1474 1477 1479 1481 1483 1484 1485 1487 1488 1490 1492 1494 1495 1496 1498 1498 1499 1499 1501 1502 1504 1505 1506 1507 1507 1508 1509 1509 1510 1511
1516 1516 1513 1511 1505 1497 1496 1492 1476 1473 1472 1474 1474 1474 1473 1472 1472 1472 1473 1474 1475 1476 1477 1478 1479 1480 1481 1483 1486 1487 1488 1488 1488 1488 1488 1490 1491 1492 1493 1494 1495 1496 1497 1497 1498 1499 1500 1501 1502
1517 1510 1512 1512 1515 1512 1504 1513 1486 1474 1475 1475 1476 1476 1475 1475 1474 1474 1474 1474 1473 1473 1473 1474 1475 1476 1476 1478 1479 1479 1478 1477 1477 1480 1481 1483 1484 1484 1484 1485 1486 1486 1487 1487 1488 1490 1490 1492 1491
1511 1509 1510 1512 1515 1516 1503 1507 1492 1474 1478 1478 1477 1477 1477 1476 1475 1475 1474 1473 1472 1471 1470 1470 1471 1471 1472 1472 1472 1473 1472 1472 1474 1475 1475 1474 1475 1475 1475 1475 1476 1476 1476 1476 1478 1478 1479 1480 1481
1512 1510 1506 1509 1514 1519 1497 1501 1496 1478 1476 1477 1477 1478 1478 1478 1476 1475 1474 1472 1471 1469 1468 1467 1467 1466 1467 1467 1467 1467 1466 1467 1467 1467 1467 1467 1466 1466 1465 1466 1465 1465 1465 1466 1467 1468 1469 1469 1470
1513 1516 1517 1517 1523 1511 1495 1498 1493 1473 1472 1474 1477 1478 1478 1477 1476 1475 1473 1471 1469 1467 1466 1464 1463 1463 1463 1462 1462 1461 1461 1461 1461 1460 1460 1460 1458 1457 1455 1456 1456 1455 1455 1456 1457 1458 1458 1458 1458
1510 1515 1524 1528 1520 1509 1495 1498 1483 1469 1470 1472 1475 1477 1477 1476 1475 1474 1473 1471 1469 1467 1464 1463 1461 1460 1459 1458 1457 1457 1456 1455 1454 1453 1453 1452 1450 1449 1449 1448 1446 1445 1446 1446 1447 1447 1447 1447 1447
1510 1510 1510 1519 1516 1516 1501 1484 1472 1467 1469 1472 1473 1475 1475 1475 1474 1473 1472 1471 1468 1466 1464 1462 1460 1458 1457 1455 1454 1452 1451 1450 1448 1447 1446 1444 1443 1443 1442 1440 1438 1436 1436 1436 1436 1435 1435 1435 1435
1511 1512 1515 1519 1522 1520 1500 1489 1483 1472 1471 1471 1472 1473 1473 1473 1473 1472 1472 1470 1468 1466 1464 1461 1459 1457 1455 1452 1450 1448 1446 1444 1442 1440 1437 1435 1434 1434 1433 1431 1428 1427 1425 1425 1425 1423 1424 1424 1424
1514 1513 1513 1514 1511 1519 1516 1499 1471 1470 1468 1470 1472 1472 1472 1472 1472 1472 1471 1470 1468 1466 1463 1460 1458 1455 1452 1449 1446 1444 1441 1438 1435 1433 1430 1428 1425 1424 1422 1421 1419 1417 1415 1414 1413 1412 1413 1413 1413
1500 1503 1507 1517 1512 1506 1510 1497 1468 1466 1467 1469 1471 1471 1471 1471 1471 1471 1470 1468 1466 1464 1461 1458 1455 1452 1449 1446 1442 1439 1436 1432 1429 1426 1423 1420 1417 1415 1413 1411 1408 1406 1404 1403 1401 1400 1400 1400 1401